Home   Weather   Passau   Past weeks

Flag for Germany Past Weather in Passau, Bavaria, Germany — Yesterday and Last 2 Weeks

Now
54 °F

Cool.


Feels Like: 54 °F
Forecast: 46 / 72 °F
Wind: 1 mph from North

Location: Rohrbach

Current Time: Sep 29, 2016 at 5:34:31 AM

Latest Report: Sep 29, 2016 at 4:00 AM


Visibility: N/A

Pressure: 30.33 "Hg

Humidity: 91%

Dew Point: 52 °F

Location of PassauLocation

Past Weather in Passau — Graph

°F

Passau Temperature Yesterday

Maximum temperature yesterday: 66 °F (at 3:00 PM)
Minimum temperature yesterday: 46 °F (at 8:00 AM)
Average temperature yesterday: 56 °F

High & Low Weather Summary for the Past Weeks

 TemperatureHumidityPressure
High81 °F (Sep 14, 3:00 PM)100% (Sep 19, 4:00 AM)30.43 "Hg (Sep 19, 4:00 AM)
Low42 °F (Sep 23, 7:00 AM)38% (Sep 14, 3:00 PM)29.78 "Hg (Sep 17, 2:00 AM)
Average57 °F79%30.09 "Hg
* Reported Sep 14 4:00 AM — Sep 29 4:00 AM, Passau, Weather by CustomWeather, © 2016

Note: Actual official high and low records may vary slightly from our data, if they occured in-between our weather recording intervals... More about our weather records

Advertising

Passau Weather History for the Previous 24 Hours

Scroll right to see more
 ConditionsComfort  
Time TempWeatherWind HumidityBarometerVisibility
4:00 AM
Thu, Sep 29
54 °FCool.1 mph91%30.33 "HgN/A
3:00 AM55 °FCool.1 mph91%30.33 "HgN/A
2:00 AM54 °FCool.No wind92%30.35 "HgN/A
1:00 AM56 °FCool.1 mph89%30.34 "HgN/A
12:00 AM55 °FCool.1 mph90%30.35 "HgN/A
11:00 PM
Wed, Sep 28
55 °FCool.1 mph91%30.36 "HgN/A
10:00 PM56 °FCool.1 mph91%30.35 "HgN/A
9:00 PM58 °FCool.1 mph88%30.34 "HgN/A
8:00 PM59 °FCool.1 mph86%30.33 "HgN/A
7:00 PM61 °FCool.2 mph80%30.32 "HgN/A
6:00 PM63 °FMild.2 mph75%30.31 "HgN/A
5:00 PM64 °FMild.2 mph71%30.30 "HgN/A
4:00 PM65 °FMild.2 mph66%30.30 "HgN/A
3:00 PM66 °FMild.5 mph61%30.31 "HgN/A
2:00 PM64 °FMild.3 mph67%30.33 "HgN/A
1:00 PM65 °FMild.1 mph72%30.35 "HgN/A
12:00 PM62 °FMild.2 mph75%30.37 "HgN/A
11:00 AM57 °FCool.1 mph83%30.40 "HgN/A
10:00 AM53 °FCool.1 mph90%30.41 "HgN/A
9:00 AM48 °FCool.No wind94%30.43 "HgN/A
8:00 AM46 °FCool.No wind96%30.43 "HgN/A
5:00 AM47 °FCool.No wind97%30.42 "HgN/A
Weather by CustomWeather, © 2016

See weather overviewHow to use our weather pages